Regional Weather Roundup
Issued by NWS

Home | Current Version | Previous Version | Text Only | Print | Product List | Glossary Off
Versions: 1 2 3 4 5 6 7 8 9 10 11 12 13 14 15 16 17 18 19 20 21 22 23 24 25 26 27 28 29 30 31 32 33 34 35 36 37 38 39 40 41 42 43 44 45 46 47 48 49 50

000
ASUS45 KTFX 230319
RWRMT
MONTANA HOURLY WEATHER ROUNDUP
NATIONAL WEATHER SERVICE GREAT FALLS MT
919 PM MDT TUE JUL 22 2014

NOTE: "FAIR" INDICATES FEW OR NO CLOUDS BELOW 12000 FEET WITH NO
SIGNIFICANT WEATHER AND/OR OBSTRUCTIONS TO VISIBILITY.

* THESE STATIONS ARE NOT UNDER NWS QUALITY CONTROL. THEY DO NOT
   REPORT WEATHER SUCH AS PRECIPITATION OR FOG.

MTZ001>007-043-230400-
WEST OF THE DIVIDE
CITY           SKY/WX    TMP DP  RH WIND       PRES   REMARKS
KALISPELL      MOCLDY    64  57  78 CALM      30.15F
MISSOULA       PTCLDY    77  46  33 N20G28    30.09S
BUTTE          CLOUDY    72  46  40 W7        30.26R
MULLAN PASS    MOCLDY    61  50  67 N5        30.29S
* ESSEX        N/A       64  56  75 N/A        N/A
* LINCOLN      N/A       72  61  68 SE3G10     N/A
* LOOKOUT PASS N/A       63  57  81 N2         N/A
* POLSON       N/A       61  54  78 NE2        N/A
* RONAN APT    PTCLDY    70  54  57 S9         N/A
* SEELEY LAKE  N/A       80  50  35 NW7G12     N/A
* THOMP F APT  MOCLDY    76  37  24 S6G19      N/A
* YAAK HILL    N/A       69  53  57 E1         N/A
$$

MTZ008-052>055-230400-
SOUTHWEST MONTANA
CITY           SKY/WX    TMP DP  RH WIND       PRES   REMARKS
BOZEMAN        PTCLDY    72  52  49 NW3       30.18R
DILLON         MOCLDY    70  54  57 E7        30.19S
W YELLOWSTONE  PTCLDY    59  46  62 CALM      30.35S
* THREE FORKS  MOCLDY    73  63  71 NW6        N/A
* BOULDER HILL N/A       66  52  61 N/A        N/A
* MONIDA PASS  N/A       73  40  30 S5         N/A
* RAYNOLDS PAS N/A       66  46  49 SE6G11     N/A
* WHITEHALL    N/A       76  52  43 N1         N/A
* WISE RIVER   N/A       68  51  55 W7G20      N/A
$$

MTZ009>010-012-014-046-048-049-054-230400-
EAST SLOPES AND CENTRAL MONTANA
CITY           SKY/WX    TMP DP  RH WIND       PRES   REMARKS
CUT BANK       MOCLDY    72  48  43 NE9       30.19R
GREAT FALLS    MOCLDY    72  55  55 E12       30.15R
HELENA         TSTM      77  52  42 S10G20    30.16R
MALMSTROM AFB  MOCLDY    72  54  53 SE6       30.17R
* CONRAD       CLEAR     72  57  59 N/A        N/A
* DEARBORN     N/A       76  56  50 E1         N/A
* EAST GLACIER N/A       68  50  53 E1G6       N/A
* MONARCH      N/A       66  55  68 E6         N/A
* PENDROY      N/A       69  51  53 NE6        N/A
* ROGERS PASS  N/A       68  55  63 NW1        N/A
* SAINT MARY   N/A       59  37  44 SE6G24     N/A
* SWEET GRASS  N/A       68  54  61 NE8        N/A
* WHITE SULPH  N/A       63  55  75 NE8G14     N/A
$$

MTZ011-013-016-021-035-040-045-047-050-051-230400-
NORTH CENTRAL MONTANA
CITY           SKY/WX    TMP DP  RH WIND       PRES   REMARKS
HAVRE          CLEAR     77  55  47 E9        30.15S
LEWISTOWN      CLOUDY    66  61  84 E10       30.24F
* FORT BENTON  MOCLDY    81  54  39 E9        30.15R
* CHESTER      N/A       76  46  35 E5         N/A
* DENTON       N/A       72  52  49 SE11       N/A
* GEYSER       N/A       68  59  73 NE8        N/A
* JUDITH GAP   N/A       59  57  93 SE4        N/A
* LOMA         N/A       81  52  37 E13G20     N/A
$$

MTZ017>020-022>027-061-062-230400-
NORTHEAST MONTANA
CITY           SKY/WX    TMP DP  RH WIND       PRES   REMARKS
GLASGOW        PTCLDY    75  52  45 E9        30.19R
GLENDIVE       PTCLDY    70  59  68 S7        30.25R
JORDAN         PTCLDY    79  52  39 E12       30.21R
SIDNEY         MOCLDY    73  55  53 SE5       30.22R
WOLF POINT     PTCLDY    77  52  42 E7        30.18R
* BEAVER HILL  N/A       67  63  87 SE11       N/A
* CIRCLE       N/A       72  55  55 E1         N/A
* LINDSAY DVD  N/A       68  57  68 E4         N/A
* NAVAJO       N/A       69  57  66 E6         N/A
$$

MTZ028>042-056>058-230400-
SOUTHCENTRAL AND SOUTHEAST MONTANA
CITY           SKY/WX    TMP DP  RH WIND       PRES   REMARKS
BAKER          PTCLDY    66 N/A N/A SE13      30.23S
BILLINGS       CLOUDY    66  57  73 NE7       30.23R
LIVINGSTON     CLEAR     70  55  59 CALM      30.21R
MILES CITY     PTCLDY    73  63  71 NE12      30.21R
* LAUREL APT   MOCLDY    64  57  78 N/A        N/A
* ROUNDUP APT  CLOUDY    70  57  64 N/A        N/A
* ALZADA       N/A       73  61  66 NE12       N/A
* HYSHAM       N/A       75  55  50 E5         N/A
* LAME DEER    N/A       71  56  59 N11        N/A
* REED POINT   N/A       67  62  84 SW1        N/A
* ROSCOE HILL  N/A       69  41  36 SE4        N/A
$$

REGIONAL REPORTS...DAKOTAS
CITY           SKY/WX    TMP DP  RH WIND       PRES   REMARKS
WILLISTON      CLOUDY    77  61  58 E12       30.20R
DICKINSON      CLOUDY    64  61  90 S6        30.22R
CROSBY         N/A       64  64 100 E5        30.25R
TIOGA          MOCLDY    68  68 100 E7        30.27R
WATFORD CITY   PTCLDY    68  63  84 SE6       30.19R
BISMARCK       CLOUDY    72  64  76 S6        30.24S
GRAND FORKS    FAIR      64  61  90 CALM      30.22R
FARGO          CLEAR     66  57  73 CALM      30.23R
BUFFALO SD     MOCLDY    66  63  90 E20G26    30.18S
RAPID CITY     TSTM      73  63  71 NE6       30.23R
$$

REGIONAL REPORTS...WYOMING/IDAHO/WASHINGTON
CITY           SKY/WX    TMP DP  RH WIND       PRES   REMARKS
GILLETTE       CLEAR     75  55  50 SE12      30.20S
SHERIDAN       FAIR      79  55  44 N17       30.24R
CODY           PTCLDY    72  45  38 NW9       30.27R
YELLOWSTONE LA PTCLDY    61  48  62 CALM      30.48R
SALMON         PTCLDY    73  48  41 S6        30.07R
MULLAN PASS    MOCLDY    61  50  67 N5        30.29S
SAND POINT     PTCLDY    66  55  68 NE6       30.11F
SPOKANE        MOCLDY    75  54  48 E10       30.08S
$$

REGIONAL REPORTS...ALBERTA
CITY           SKY/WX    TMP DP  RH WIND       PRES   REMARKS
CALGARY        MOCLDY    68  46  45 S14G21    30.09S
LETHBRIDGE     MOCLDY    64  57  78 SE7       30.15S
MEDICINE HAT   MOCLDY    68  61  78 SE6       30.15S
EDMONTON       MOCLDY    70  57  64 E12       30.07F
WATERTON GATE  N/A       66  50  56 S7         N/A
CARDSTON       N/A       70  52  53 S8         N/A
MILK RIVER     N/A       64  50  61 E8         N/A
$$

REGIONAL REPORTS...SASKATCHEWAN
CITY           SKY/WX    TMP DP  RH WIND       PRES   REMARKS
SWIFT CURRENT  MOCLDY    66  61  84 E8        30.22R
REGINA         PTCLDY    70  54  57 E8        30.25R
VAL MARIE      N/A       63  57  81 E7         N/A
ASSINIBOIA     N/A       64  57  78 E7         N/A
CORONACH       N/A       70  59  68 E9         N/A

$$



USA.gov is the U.S. government's official web portal to all federal, state and local government web resources and services.